Flag for Ireland Weather past 2 weeks in Galway, Ireland

46 °F

Passing clouds.

Feels Like: 41 °F
Forecast: N/A
Wind: 10 mph from Southeast

Location: Shannon Airport

Current Time: Nov 30, 2015 at 9:39:00 PM

Latest Report: Nov 30, 2015 at 9:00 PM

Visibility: 4 mi

Pressure: 29.98 "Hg

Humidity: 93%

Dew point: 45 °F

Location of GalwayLocation

Historic Weather in Galway — Graph


Galway temperature yesterday

Maximum temperature yesterday: 54 °F (at 7:00 AM)
Minimum temperature yesterday: 45 °F (at 11:00 PM)
Average temperature yesterday: 49 °F

Past Weeks' High & Low Weather Summary

High59 °F (Nov 15, 8:00 PM)100% (Nov 16, 7:30 PM)30.27 "Hg (Nov 16, 7:30 PM)
Low34 °F (Nov 23, 12:00 AM)57% (Nov 27, 6:00 PM)29.21 "Hg (Nov 17, 2:00 PM)
Average48 °F85%29.89 "Hg
* Reported Nov 15 8:00 PM — Nov 30 8:30 PM, Galway, Weather by CustomWeather, © 2015

Note: Actual official high and low records may vary slightly from our data, if they occured in-between our weather recording intervals... More about our weather records


Galway weather history for previous 24 hours

Time TempWeatherWind HumidityBarometerVisibility
8:30 PM
Mon, Nov 30
46 °FPartly cloudy.2 mph93%29.98 "Hg3 mi
8:00 PM46 °FLight rain. Passing clouds.2 mph93%29.98 "HgN/A
7:30 PM46 °FPartly cloudy.2 mph93%29.95 "Hg5 mi
7:00 PM46 °FLight rain. Passing clouds.3 mph93%29.95 "Hg6 mi
6:30 PM46 °FPartly cloudy.3 mph93%29.95 "HgN/A
6:00 PM46 °FPartly cloudy.7 mph93%29.92 "Hg4 mi
5:30 PM48 °FDrizzle. Mostly cloudy.7 mph94%29.92 "Hg2 mi
5:00 PM50 °FLight rain. Partly cloudy.No wind94%29.92 "Hg5 mi
4:30 PM50 °FLight rain. Passing clouds.3 mph94%29.89 "HgN/A
4:00 PM50 °FDrizzle. Broken clouds.6 mph94%29.86 "Hg4 mi
3:30 PM50 °FDrizzle. Broken clouds.8 mph100%29.86 "Hg4 mi
3:00 PM52 °FDrizzle. Partly sunny.10 mph94%29.83 "Hg4 mi
2:30 PM52 °FLight rain. Mostly cloudy.10 mph94%29.83 "Hg3 mi
2:00 PM52 °FLight rain. Mostly cloudy.13 mph100%29.83 "Hg2 mi
1:30 PM52 °FLight rain. Mostly cloudy.16 mph100%29.80 "Hg2 mi
1:00 PM52 °FLight rain. Mostly cloudy.16 mph100%29.80 "Hg3 mi
12:30 PM52 °FLight rain. More clouds than sun.18 mph100%29.80 "Hg4 mi
12:00 PM55 °FRain. Partly sunny.31 mph94%29.74 "Hg2 mi
11:30 AM55 °FLight rain. Partly sunny.37 mph94%29.74 "Hg4 mi
11:00 AM55 °FLight rain. Partly sunny.35 mph94%29.74 "Hg6 mi
10:30 AM55 °FLight rain. Partly sunny.39 mph94%29.71 "HgN/A
10:00 AM55 °FLight rain. Mostly cloudy.39 mph88%29.71 "Hg5 mi
9:30 AM54 °FLight rain. Mostly cloudy.35 mph94%29.71 "Hg5 mi
9:00 AM54 °FLight rain. More clouds than sun.29 mph94%29.71 "Hg5 mi
8:30 AM54 °FLight rain. Broken clouds.28 mph94%29.71 "Hg5 mi
7:00 AM52 °FLight rain. Partly cloudy.29 mph94%29.71 "Hg5 mi
6:30 AM52 °FLight rain. Partly cloudy.24 mph94%29.71 "Hg5 mi
6:00 AM52 °FLight rain. Partly cloudy.21 mph88%29.74 "Hg5 mi
5:30 AM52 °FLight rain. Partly cloudy.23 mph88%29.74 "Hg5 mi
5:00 AM52 °FLight rain. Partly cloudy.23 mph88%29.77 "Hg5 mi
4:30 AM52 °FLight rain. Partly cloudy.21 mph88%29.77 "HgN/A
3:30 AM46 °FLight rain. Passing clouds.9 mph93%29.83 "HgN/A
3:00 AM45 °FLight rain. Mostly cloudy.8 mph93%29.86 "HgN/A
2:30 AM45 °FLight rain. Overcast.9 mph93%29.86 "Hg6 mi
2:00 AM45 °FLight rain. Overcast.9 mph93%29.89 "Hg6 mi
12:30 AM45 °FLight rain. Mostly cloudy.5 mph87%29.95 "HgN/A
12:00 AM45 °FLight rain. Partly cloudy.7 mph87%29.95 "HgN/A
11:00 PM
Sun, Nov 29
45 °FLight rain. Passing clouds.8 mph81%29.95 "HgN/A
10:30 PM46 °FPassing clouds.6 mph76%29.95 "HgN/A
10:00 PM46 °FLight rain. Passing clouds.5 mph71%29.95 "HgN/A
9:30 PM46 °FPassing clouds.6 mph71%29.95 "HgN/A
9:00 PM46 °FPartly cloudy.7 mph71%29.95 "HgN/A
Weather by CustomWeather, © 2015

See weather overviewHow to use our weather pages